Location: Bli��� Lhota
(48.7570°N, 14.0120°E)
Time: 07:50:14
(UTC+00:00)

CZ-2C R/B - Pass Details

Date: 18 September 2020
Orbit: 785 x 870 km, 98.2° (Epoch: 24 October)

Event Time Altitude Azimuth Distance (km) Brightness Sun altitude
Rises 19:15:51 0° 11° (NNE) 3,408 6.1 -20.7°
Reaches altitude 10° 19:18:13 10° 10° (N) 2,481 5.4 -21.1°
Maximum altitude 19:23:41 68° 288° (WNW) 924 3.0 -21.9°
Drops below altitude 10° 19:29:13 10° 207° (SSW) 2,503 5.1 -22.7°
Sets 19:31:37 0° 205° (SSW) 3,441 5.8 -23.0°
